Oxford, NC

6:27 AM EDT on August 20, 2017 (GMT -0400)
Henderson-Oxford

Weather History for KHNZ - March, 2014

Change the Weather History Date:

Wednesday, March 19, 2014

  Actual Average (KTDF) Record (KTDF)
Temperature  
Mean Temperature 39 °F -  
Max Temperature 45 °F 60 °F 77 °F (1977)
Min Temperature 33 °F 35 °F 12 °F (1967)
Degree Days  
Heating Degree Days 26    
Moisture  
Dew Point 38 °F    
Average Humidity 95    
Maximum Humidity 97    
Minimum Humidity 91    
Precipitation  
Precipitation 0.03 in - - ()
Sea Level Pressure  
Sea Level Pressure 30.09 in    
Wind  
Wind Speed 5 mph (NW)    
Max Wind Speed 13 mph    
Max Gust Speed -    
Visibility 4 miles    
Events Rain    
Averages and records for this station are not official NWS values.
T = Trace of Precipitation, MM = Missing Value Source: NWS Daily Summary

Daily Weather History Graph

Daily Weather History Graph

Search for Another Location

Airport or City:

Trip Planner

Search our weather history database for the weather conditions in past years. The results will help you decide how hot, cold, wet, or windy it might be!

Date:

Astronomy

Mar. 19, 2014 Rise Set
Actual Time 7:19 AM EDT 7:25 PM EDT
Civil Twilight 6:53 AM EDT 7:50 PM EDT
Nautical Twilight 6:23 AM EDT 8:20 PM EDT
Astronomical Twilight 5:53 AM EDT 8:51 PM EDT
Moon 10:35 PM EDT (3/19) 8:49 AM EDT (3/19)
Length of Visible Light 12h 57m
Length of Day
12h 05m
Waning Gibbous, 91% of the Moon is Illuminated
Mar 19
Waning Gibbous
Mar 23
Last Quarter
Mar 30
New
Apr 7
First Quarter
Apr 15
Full

Hourly Weather History & Observations

Time (EDT) Temp. Windchill Dew Point Humidity Pressure Visibility Wind Dir Wind Speed Gust Speed Precip Events Conditions
12:15 AM 34.9 °F 29.9 °F 33.3 °F 94% 30.16 in 10.0 mi North 5.8 mph - N/A   Overcast
12:35 AM 34.9 °F 32.0 °F 33.1 °F 93% 30.17 in 10.0 mi North 3.5 mph - N/A   Overcast
12:55 AM 34.9 °F 29.9 °F 33.3 °F 94% 30.16 in 10.0 mi North 5.8 mph - N/A   Overcast
1:15 AM 34.7 °F 28.8 °F 33.1 °F 94% 30.16 in 10.0 mi North 6.9 mph - N/A   Overcast
1:35 AM 34.7 °F 30.6 °F 33.1 °F 94% 30.16 in 10.0 mi North 4.6 mph - N/A   Overcast
1:55 AM 34.7 °F 30.6 °F 33.1 °F 94% 30.16 in 10.0 mi North 4.6 mph - N/A   Overcast
2:15 AM 34.7 °F 30.6 °F 33.1 °F 94% 30.17 in 10.0 mi NNW 4.6 mph - N/A   Overcast
2:35 AM 34.7 °F 31.8 °F 32.9 °F 93% 30.17 in 10.0 mi North 3.5 mph - N/A   Overcast
2:55 AM 34.5 °F 30.4 °F 32.7 °F 93% 30.17 in 10.0 mi North 4.6 mph - N/A   Overcast
3:15 AM 34.7 °F 30.6 °F 32.4 °F 91% 30.16 in 10.0 mi North 4.6 mph - N/A   Overcast
3:35 AM 34.5 °F 29.4 °F 32.4 °F 92% 30.16 in 10.0 mi North 5.8 mph - N/A   Overcast
3:55 AM 34.2 °F 29.0 °F 32.4 °F 93% 30.16 in 5.0 mi North 5.8 mph - N/A   Overcast
4:15 AM 34.2 °F 29.0 °F 32.5 °F 94% 30.16 in 5.0 mi North 5.8 mph - N/A   Overcast
4:35 AM 34.0 °F 29.8 °F 32.5 °F 94% 30.17 in 3.0 mi NNW 4.6 mph - N/A   Overcast
4:55 AM 34.0 °F 29.8 °F 32.9 °F 96% 30.17 in 2.5 mi North 4.6 mph - N/A   Overcast
5:15 AM 34.0 °F 28.0 °F 32.9 °F 96% 30.17 in 2.0 mi North 6.9 mph - N/A   Overcast
5:35 AM 33.8 °F 28.6 °F 32.9 °F 96% 30.17 in 2.0 mi North 5.8 mph - N/A   Overcast
5:55 AM 33.8 °F 29.6 °F 32.9 °F 96% 30.18 in 1.5 mi North 4.6 mph - N/A   Overcast
6:15 AM 34.0 °F 29.8 °F 32.9 °F 96% 30.18 in 2.0 mi NNW 4.6 mph - N/A   Overcast
6:35 AM 33.8 °F 30.8 °F 32.9 °F 96% 30.18 in 1.8 mi NNW 3.5 mph - N/A   Overcast
6:55 AM 33.8 °F 30.8 °F 32.9 °F 96% 30.18 in 1.8 mi North 3.5 mph - N/A   Overcast
7:15 AM 33.8 °F 27.7 °F 32.9 °F 96% 30.17 in 1.8 mi North 6.9 mph - N/A   Overcast
7:35 AM 33.8 °F 29.6 °F 33.1 °F 97% 30.18 in 1.8 mi North 4.6 mph - N/A   Overcast
7:55 AM 34.0 °F 29.8 °F 33.1 °F 96% 30.18 in 1.0 mi North 4.6 mph - N/A   Overcast
8:15 AM 34.2 °F 31.2 °F 33.3 °F 97% 30.18 in 1.0 mi North 3.5 mph - N/A   Overcast
8:35 AM 34.2 °F 28.2 °F 33.4 °F 97% 30.18 in 1.0 mi North 6.9 mph - N/A   Drizzle
8:55 AM 34.2 °F 29.0 °F 33.4 °F 97% 30.17 in 1.2 mi North 5.8 mph - N/A   Overcast
9:15 AM 34.7 °F 29.6 °F 33.8 °F 97% 30.17 in 1.0 mi North 5.8 mph - N/A   Overcast
9:35 AM 34.9 °F 29.0 °F 34.0 °F 97% 30.16 in 1.0 mi North 6.9 mph - N/A   Overcast
9:55 AM 35.1 °F 32.2 °F 34.2 °F 97% 30.16 in 0.8 mi North 3.5 mph - N/A   Overcast
10:15 AM 35.6 °F 31.7 °F 34.7 °F 97% 30.17 in 1.2 mi North 4.6 mph - N/A   Overcast
10:35 AM 35.8 °F 30.9 °F 35.1 °F 97% 30.17 in 1.8 mi North 5.8 mph - N/A   Overcast
10:55 AM 36.3 °F 32.5 °F 35.4 °F 97% 30.16 in 2.0 mi NNW 4.6 mph - N/A Rain Light Rain
11:15 AM 36.9 °F 34.3 °F 36.1 °F 97% 30.16 in 2.0 mi NNE 3.5 mph - 0.02 in   Drizzle
11:35 AM 37.8 °F - 36.9 °F 97% 30.15 in 3.0 mi Calm Calm - 0.03 in   Overcast
11:55 AM 38.3 °F - 37.2 °F 96% 30.14 in 4.0 mi Calm Calm - 0.03 in Rain Light Rain
12:15 PM 39.2 °F 37.0 °F 37.9 °F 95% 30.14 in 2.5 mi NNW 3.5 mph - N/A   Overcast
12:35 PM 39.4 °F - 37.8 °F 94% 30.13 in 5.0 mi Calm Calm - N/A   Overcast
12:55 PM 40.5 °F 36.5 °F 39.0 °F 95% 30.12 in 1.8 mi WNW 5.8 mph - N/A   Overcast
1:15 PM 41.2 °F 39.2 °F 39.6 °F 94% 30.11 in 1.8 mi WNW 3.5 mph - N/A   Overcast
1:35 PM 41.5 °F 38.6 °F 39.7 °F 93% 30.10 in 1.5 mi WNW 4.6 mph - N/A   Light Drizzle
1:55 PM 42.1 °F 40.2 °F 40.3 °F 93% 30.09 in 2.0 mi West 3.5 mph - N/A   Overcast
2:15 PM 42.6 °F - 40.8 °F 93% 30.07 in 1.8 mi Calm Calm - N/A Rain Light Rain
2:35 PM 43.5 °F - 41.5 °F 93% 30.06 in 5.0 mi Calm Calm - N/A   Overcast
2:55 PM 43.5 °F - 41.0 °F 91% 30.04 in 2.0 mi Calm Calm - N/A   Overcast
3:15 PM 43.7 °F - 41.2 °F 91% 30.03 in 4.0 mi Calm Calm - N/A   Overcast
3:35 PM 44.2 °F - 42.1 °F 92% 30.02 in 7.0 mi Calm Calm - N/A   Overcast
3:55 PM 45.3 °F 44.0 °F 43.3 °F 93% 30.02 in 10.0 mi South 3.5 mph - N/A   Overcast
4:15 PM 45.7 °F 44.4 °F 43.7 °F 93% 30.01 in 5.0 mi South 3.5 mph - N/A   Overcast
4:35 PM 45.9 °F 43.6 °F 44.1 °F 93% 30.01 in 3.0 mi SW 4.6 mph - N/A   Overcast
4:55 PM 45.5 °F 43.2 °F 43.9 °F 94% 29.99 in 3.0 mi SSW 4.6 mph - N/A   Overcast
5:15 PM 45.5 °F 44.2 °F 43.9 °F 94% 29.99 in 4.0 mi South 3.5 mph - N/A   Overcast
5:35 PM 45.7 °F 42.0 °F 44.2 °F 95% 29.99 in 5.0 mi SSW 6.9 mph - N/A   Overcast
5:55 PM 45.7 °F 42.7 °F 44.2 °F 95% 29.99 in 10.0 mi SW 5.8 mph - N/A   Overcast
6:15 PM 45.9 °F 42.3 °F 44.2 °F 94% 29.99 in 10.0 mi WSW 6.9 mph - N/A   Overcast
6:35 PM 45.7 °F 42.7 °F 43.9 °F 93% 29.99 in 10.0 mi SSW 5.8 mph - N/A   Overcast
6:55 PM 45.5 °F 44.2 °F 43.9 °F 94% 29.99 in 5.0 mi South 3.5 mph - N/A   Overcast
7:15 PM 45.5 °F 42.5 °F 43.7 °F 93% 29.98 in 2.5 mi South 5.8 mph - N/A   Overcast
7:35 PM 45.3 °F 41.6 °F 43.7 °F 94% 29.97 in 2.0 mi South 6.9 mph - N/A   Overcast
7:55 PM 44.8 °F 41.0 °F 43.7 °F 96% 29.97 in 1.5 mi South 6.9 mph - N/A   Overcast
8:15 PM 44.8 °F 41.6 °F 43.7 °F 96% 29.97 in 1.5 mi SSW 5.8 mph - N/A   Overcast
8:35 PM 45.0 °F 41.2 °F 43.7 °F 95% 29.97 in 1.5 mi SSW 6.9 mph - N/A   Overcast
8:55 PM 45.0 °F 40.6 °F 43.9 °F 96% 29.97 in 1.5 mi SSW 8.1 mph - N/A   Overcast
9:15 PM 45.1 °F 40.8 °F 44.1 °F 96% 29.97 in 2.0 mi SSW 8.1 mph - N/A   Overcast
9:35 PM 45.5 °F 40.8 °F 44.2 °F 95% 29.97 in 4.0 mi SSW 9.2 mph - N/A   Overcast
9:55 PM 45.5 °F 39.6 °F 44.6 °F 97% 29.97 in 5.0 mi SW 12.7 mph - N/A   Overcast
10:15 PM 45.9 °F 41.7 °F 44.8 °F 96% 29.97 in 5.0 mi SW 8.1 mph - N/A   Overcast
10:35 PM 45.1 °F 40.3 °F 43.9 °F 95% 29.97 in 7.0 mi SW 9.2 mph - N/A   Mostly Cloudy
10:55 PM 44.4 °F 40.0 °F 43.0 °F 95% 29.96 in 7.0 mi SW 8.1 mph - N/A   Clear
11:15 PM 43.9 °F 39.9 °F 42.3 °F 94% 29.96 in 5.0 mi SW 6.9 mph - N/A   Clear
11:35 PM 43.2 °F 39.0 °F 41.9 °F 95% 29.95 in 5.0 mi SW 6.9 mph - N/A   Clear
11:55 PM 43.5 °F 38.9 °F 42.1 °F 95% 29.95 in 5.0 mi SSW 8.1 mph - N/A   Clear